VOZ1249 YBBN-YBRK

Flight info

Callsign VOZ1249
Flight time 0h 56m
Altitude 38000
Route BIXAD Q67 LOAFA Q64 OLDIB DCT DADBO
Aircraft B738/M-SDE2E3FGHIRWXY/LB1

Departure

Time 2026-04-25 09:21
Airport Brisbane International Airport (YBBN)

Arrival

Time 2026-04-25 10:17
Airport Rockhampton Airport (YBRK)
Time Latitude Longitude Altitude Speed Heading
2026-04-25 08:46 -27.38865 153.11877 20 ft 0 kts 35°
2026-04-25 09:03 -27.38876 153.11868 20 ft 2 kts 35°
2026-04-25 09:03 -27.38888 153.11858 20 ft 2 kts 35°
2026-04-25 09:03 -27.38899 153.11847 20 ft 2 kts 72°
2026-04-25 09:03 -27.38900 153.11829 20 ft 2 kts 108°
2026-04-25 09:04 -27.38893 153.11815 20 ft 2 kts 144°
2026-04-25 09:04 -27.38887 153.11810 20 ft 1 kts 158°
2026-04-25 09:04 -27.38882 153.11809 20 ft 0 kts 155°
2026-04-25 09:09 -27.38894 153.11818 20 ft 5 kts 139°
2026-04-25 09:09 -27.38923 153.11870 20 ft 9 kts 117°
2026-04-25 09:09 -27.38960 153.11954 20 ft 16 kts 117°
2026-04-25 09:09 -27.39021 153.12062 20 ft 15 kts 118°
2026-04-25 09:10 -27.39024 153.12169 20 ft 13 kts 48°
2026-04-25 09:10 -27.38942 153.12222 20 ft 15 kts 27°
2026-04-25 09:10 -27.38823 153.12288 20 ft 19 kts 27°
2026-04-25 09:10 -27.38702 153.12358 20 ft 19 kts 27°
2026-04-25 09:11 -27.38469 153.12491 20 ft 19 kts 27°
2026-04-25 09:11 -27.38346 153.12563 20 ft 19 kts 27°
2026-04-25 09:11 -27.38228 153.12630 20 ft 18 kts 27°
2026-04-25 09:12 -27.38118 153.12692 20 ft 17 kts 27°
2026-04-25 09:12 -27.38020 153.12750 20 ft 11 kts 29°
2026-04-25 09:12 -27.37950 153.12755 20 ft 10 kts 322°
2026-04-25 09:12 -27.37914 153.12689 20 ft 10 kts 297°
2026-04-25 09:13 -27.37866 153.12585 20 ft 17 kts 297°
2026-04-25 09:13 -27.37810 153.12463 20 ft 17 kts 298°
2026-04-25 09:13 -27.37758 153.12347 20 ft 16 kts 297°
2026-04-25 09:13 -27.37708 153.12238 20 ft 14 kts 298°
2026-04-25 09:14 -27.37662 153.12137 20 ft 15 kts 297°
2026-04-25 09:14 -27.37601 153.12003 20 ft 21 kts 297°
2026-04-25 09:14 -27.37532 153.11853 20 ft 21 kts 297°
2026-04-25 09:14 -27.37466 153.11706 20 ft 20 kts 297°
2026-04-25 09:15 -27.37409 153.11581 20 ft 10 kts 297°
2026-04-25 09:15 -27.37361 153.11546 20 ft 8 kts 21°
2026-04-25 09:15 -27.37302 153.11580 20 ft 12 kts 28°
2026-04-25 09:15 -27.37204 153.11636 20 ft 18 kts 26°
2026-04-25 09:16 -27.37089 153.11700 20 ft 17 kts 27°
2026-04-25 09:16 -27.36981 153.11762 20 ft 16 kts 27°
2026-04-25 09:16 -27.36879 153.11821 20 ft 17 kts 27°
2026-04-25 09:16 -27.36754 153.11893 20 ft 20 kts 27°
2026-04-25 09:17 -27.36511 153.12032 20 ft 18 kts 27°
2026-04-25 09:17 -27.36403 153.12094 20 ft 17 kts 27°
2026-04-25 09:17 -27.36284 153.12163 20 ft 19 kts 27°
2026-04-25 09:18 -27.36156 153.12234 20 ft 20 kts 27°
2026-04-25 09:18 -27.36042 153.12300 20 ft 13 kts 27°
2026-04-25 09:18 -27.35971 153.12334 20 ft 9 kts
2026-04-25 09:18 -27.35914 153.12306 20 ft 8 kts 327°
2026-04-25 09:19 -27.35863 153.12267 20 ft 10 kts 323°
2026-04-25 09:19 -27.35805 153.12215 20 ft 10 kts 313°
2026-04-25 09:19 -27.35780 153.12169 20 ft 4 kts 298°
2026-04-25 09:19 -27.35774 153.12143 20 ft 3 kts 257°
2026-04-25 09:20 -27.35790 153.12125 20 ft 3 kts 212°
2026-04-25 09:20 -27.35805 153.12115 20 ft 4 kts 208°
2026-04-25 09:20 -27.35988 153.12009 20 ft 63 kts 208°
2026-04-25 09:20 -27.36588 153.11664 21 ft 127 kts 208°
2026-04-25 09:21 -27.37536 153.11119 52 ft 174 kts 207°
2026-04-25 09:21 -27.38572 153.10521 810 ft 167 kts 203°
2026-04-25 09:21 -27.39636 153.09933 1368 ft 178 kts 201°
2026-04-25 09:21 -27.40776 153.09274 1913 ft 193 kts 200°
2026-04-25 09:22 -27.42013 153.08551 2542 ft 205 kts 200°
2026-04-25 09:22 -27.43322 153.07803 3139 ft 219 kts 200°
2026-04-25 09:22 -27.44752 153.06992 3679 ft 239 kts 200°
2026-04-25 09:22 -27.46246 153.06134 4537 ft 244 kts 200°
2026-04-25 09:23 -27.47788 153.05229 5301 ft 257 kts 205°
2026-04-25 09:23 -27.49068 153.03803 6161 ft 273 kts 235°
2026-04-25 09:23 -27.49597 153.01733 6998 ft 287 kts 265°
2026-04-25 09:23 -27.49309 152.99497 7875 ft 293 kts 283°
2026-04-25 09:24 -27.48770 152.97272 8697 ft 297 kts 285°
2026-04-25 09:24 -27.48212 152.95047 9484 ft 302 kts 285°
2026-04-25 09:24 -27.47597 152.92783 10278 ft 305 kts 294°
2026-04-25 09:24 -27.46379 152.90863 11051 ft 305 kts 322°
2026-04-25 09:25 -27.44543 152.89737 11845 ft 300 kts 347°
2026-04-25 09:25 -27.42494 152.89430 12490 ft 300 kts
2026-04-25 09:25 -27.40437 152.90002 12923 ft 307 kts 26°
2026-04-25 09:25 -27.38475 152.91013 13314 ft 321 kts 30°
2026-04-25 09:26 -27.36405 152.92152 13722 ft 337 kts 30°
2026-04-25 09:26 -27.34234 152.93303 14113 ft 353 kts 28°
2026-04-25 09:26 -27.31928 152.94472 14561 ft 367 kts 27°
2026-04-25 09:26 -27.29580 152.95618 15274 ft 372 kts 27°
2026-04-25 09:27 -27.27215 152.96755 15998 ft 375 kts 26°
2026-04-25 09:27 -27.24796 152.97914 16679 ft 380 kts 26°
2026-04-25 09:27 -27.22360 152.99083 17314 ft 385 kts 26°
2026-04-25 09:27 -27.19877 153.00278 17959 ft 389 kts 26°
2026-04-25 09:28 -27.17376 153.01482 18619 ft 392 kts 26°
2026-04-25 09:28 -27.14855 153.02695 19239 ft 397 kts 26°
2026-04-25 09:28 -27.12298 153.03925 19876 ft 400 kts 25°
2026-04-25 09:28 -27.09728 153.05159 20529 ft 403 kts 25°
2026-04-25 09:29 -27.07143 153.06400 21123 ft 407 kts 25°
2026-04-25 09:29 -27.04522 153.07657 21709 ft 410 kts 25°
2026-04-25 09:29 -27.01875 153.08926 22305 ft 413 kts 25°
2026-04-25 09:29 -26.99248 153.10187 22857 ft 416 kts 25°
2026-04-25 09:30 -26.96571 153.11470 23408 ft 419 kts 25°
2026-04-25 09:30 -26.93856 153.12769 23865 ft 424 kts 25°
2026-04-25 09:30 -26.91138 153.14070 24326 ft 429 kts 25°
2026-04-25 09:30 -26.88374 153.15393 24788 ft 433 kts 25°
2026-04-25 09:31 -26.85586 153.16727 25200 ft 438 kts 24°
2026-04-25 09:31 -26.82751 153.18082 25689 ft 441 kts 24°
2026-04-25 09:31 -26.79903 153.19443 26031 ft 447 kts 24°
2026-04-25 09:31 -26.77064 153.20799 26475 ft 450 kts 24°
2026-04-25 09:32 -26.74091 153.22128 26852 ft 455 kts 20°
2026-04-25 09:32 -26.71040 153.23120 27301 ft 458 kts 12°
2026-04-25 09:32 -26.67871 153.23579 27634 ft 463 kts
2026-04-25 09:32 -26.64629 153.23459 28008 ft 465 kts 352°
2026-04-25 09:33 -26.61447 153.22775 28499 ft 464 kts 343°
2026-04-25 09:33 -26.58365 153.21758 28840 ft 468 kts 340°
2026-04-25 09:33 -26.55275 153.20561 29335 ft 467 kts 338°
2026-04-25 09:33 -26.52172 153.19307 29562 ft 474 kts 338°
2026-04-25 09:34 -26.49037 153.18051 30224 ft 469 kts 338°
2026-04-25 09:34 -26.45955 153.16853 30573 ft 472 kts 338°
2026-04-25 09:34 -26.42859 153.15691 30904 ft 474 kts 339°
2026-04-25 09:34 -26.39699 153.14540 31374 ft 473 kts 339°
2026-04-25 09:35 -26.36566 153.13423 31596 ft 477 kts 339°
2026-04-25 09:35 -26.33357 153.12295 31878 ft 479 kts 339°
2026-04-25 09:35 -26.30211 153.11067 32273 ft 476 kts 335°
2026-04-25 09:35 -26.27221 153.09572 32633 ft 473 kts 328°
2026-04-25 09:36 -26.24374 153.07750 32994 ft 469 kts 322°
2026-04-25 09:36 -26.21678 153.05724 33249 ft 469 kts 319°
2026-04-25 09:36 -26.19043 153.03575 33559 ft 469 kts 317°
2026-04-25 09:36 -26.16422 153.01364 33951 ft 468 kts 317°
2026-04-25 09:37 -26.13862 152.99190 34437 ft 465 kts 317°
2026-04-25 09:37 -26.11285 152.97012 34885 ft 463 kts 317°
2026-04-25 09:37 -26.08690 152.94844 35289 ft 461 kts 317°
2026-04-25 09:37 -26.06131 152.92740 35679 ft 460 kts 317°
2026-04-25 09:38 -26.03526 152.90622 36069 ft 459 kts 317°
2026-04-25 09:38 -26.00955 152.88548 36435 ft 458 kts 318°
2026-04-25 09:38 -25.98377 152.86475 36689 ft 459 kts 318°
2026-04-25 09:38 -25.95791 152.84398 36908 ft 460 kts 317°
2026-04-25 09:39 -25.93166 152.82295 37252 ft 459 kts 317°
2026-04-25 09:39 -25.90583 152.80231 37607 ft 457 kts 317°
2026-04-25 09:39 -25.87985 152.78154 37934 ft 455 kts 317°
2026-04-25 09:40 -25.82821 152.74023 38197 ft 458 kts 317°
2026-04-25 09:40 -25.80246 152.71967 38197 ft 457 kts 317°
2026-04-25 09:40 -25.75091 152.67853 38199 ft 455 kts 317°
2026-04-25 09:41 -25.69919 152.63727 38197 ft 456 kts 317°
2026-04-25 09:41 -25.64787 152.59637 38194 ft 454 kts 316°
2026-04-25 09:42 -25.59683 152.55577 38190 ft 453 kts 316°
2026-04-25 09:42 -25.54560 152.51502 38191 ft 453 kts 316°
2026-04-25 09:43 -25.49427 152.47423 38188 ft 453 kts 316°
2026-04-25 09:43 -25.44299 152.43353 38194 ft 454 kts 316°
2026-04-25 09:44 -25.39176 152.39296 38191 ft 454 kts 316°
2026-04-25 09:44 -25.34058 152.35246 38185 ft 453 kts 316°
2026-04-25 09:45 -25.28929 152.31192 38195 ft 454 kts 316°
2026-04-25 09:45 -25.23794 152.27133 38185 ft 453 kts 316°
2026-04-25 09:46 -25.18695 152.23112 38193 ft 450 kts 316°
2026-04-25 09:46 -25.13575 152.19076 38188 ft 451 kts 316°
2026-04-25 09:47 -25.08435 152.15024 38186 ft 453 kts 316°
2026-04-25 09:47 -25.03453 152.10887 38187 ft 445 kts 311°
2026-04-25 09:48 -24.99003 152.06203 38186 ft 440 kts 306°
2026-04-25 09:48 -24.94795 152.01355 38188 ft 437 kts 305°
2026-04-25 09:49 -24.90614 151.96498 38183 ft 438 kts 305°
2026-04-25 09:49 -24.86381 151.91617 38179 ft 438 kts 305°
2026-04-25 09:50 -24.82166 151.86791 38182 ft 438 kts 305°
2026-04-25 09:50 -24.77934 151.81958 38181 ft 438 kts 305°
2026-04-25 09:51 -24.73695 151.77127 38179 ft 438 kts 305°
2026-04-25 09:51 -24.69454 151.72304 38182 ft 439 kts 305°
2026-04-25 09:52 -24.65215 151.67491 38161 ft 439 kts 305°
2026-04-25 09:52 -24.63096 151.65089 38022 ft 433 kts 305°
2026-04-25 09:52 -24.61013 151.62738 37699 ft 426 kts 305°
2026-04-25 09:53 -24.58954 151.60410 37224 ft 427 kts 305°
2026-04-25 09:53 -24.56885 151.58063 36659 ft 427 kts 305°
2026-04-25 09:53 -24.54824 151.55724 36065 ft 428 kts 305°
2026-04-25 09:53 -24.52757 151.53377 35428 ft 428 kts 306°
2026-04-25 09:54 -24.50664 151.51003 34943 ft 430 kts 306°
2026-04-25 09:54 -24.48591 151.48653 34439 ft 435 kts 306°
2026-04-25 09:54 -24.46477 151.46260 33914 ft 432 kts 306°
2026-04-25 09:54 -24.44387 151.43903 33399 ft 429 kts 306°
2026-04-25 09:55 -24.42329 151.41583 32909 ft 426 kts 306°
2026-04-25 09:55 -24.40261 151.39255 32403 ft 422 kts 306°
2026-04-25 09:55 -24.38237 151.36975 31905 ft 420 kts 306°
2026-04-25 09:55 -24.36218 151.34700 31400 ft 417 kts 307°
2026-04-25 09:56 -24.34195 151.32420 30895 ft 415 kts 307°
2026-04-25 09:56 -24.32186 151.30156 30387 ft 413 kts 307°
2026-04-25 09:56 -24.30190 151.27907 29878 ft 411 kts 307°
2026-04-25 09:56 -24.28184 151.25647 29369 ft 409 kts 307°
2026-04-25 09:57 -24.26222 151.23439 28869 ft 407 kts 307°
2026-04-25 09:57 -24.24225 151.21191 28355 ft 405 kts 307°
2026-04-25 09:57 -24.22276 151.19002 27859 ft 403 kts 307°
2026-04-25 09:57 -24.20313 151.16794 27354 ft 401 kts 308°
2026-04-25 09:58 -24.18372 151.14615 26859 ft 399 kts 308°
2026-04-25 09:58 -24.16439 151.12445 26365 ft 397 kts 308°
2026-04-25 09:58 -24.14524 151.10295 25861 ft 396 kts 308°
2026-04-25 09:58 -24.12605 151.08142 25365 ft 394 kts 308°
2026-04-25 09:59 -24.10690 151.05997 24866 ft 392 kts 308°
2026-04-25 09:59 -24.08806 151.03885 24379 ft 389 kts 309°
2026-04-25 09:59 -24.06914 151.01784 23891 ft 388 kts 310°
2026-04-25 09:59 -24.04897 150.99773 23424 ft 388 kts 315°
2026-04-25 10:00 -24.02787 150.97960 22940 ft 388 kts 318°
2026-04-25 10:00 -24.00608 150.96227 22465 ft 387 kts 320°
2026-04-25 10:00 -23.98427 150.94539 21985 ft 386 kts 321°
2026-04-25 10:00 -23.96209 150.92827 21487 ft 385 kts 320°
2026-04-25 10:01 -23.94042 150.91145 21004 ft 384 kts 320°
2026-04-25 10:01 -23.91867 150.89445 20521 ft 383 kts 321°
2026-04-25 10:01 -23.89712 150.87759 20024 ft 382 kts 321°
2026-04-25 10:01 -23.87495 150.86139 19524 ft 381 kts 326°
2026-04-25 10:02 -23.85160 150.84781 18995 ft 380 kts 333°
2026-04-25 10:02 -23.82745 150.83713 18554 ft 375 kts 338°
2026-04-25 10:02 -23.80284 150.82776 18082 ft 370 kts 340°
2026-04-25 10:02 -23.77866 150.81895 17622 ft 364 kts 340°
2026-04-25 10:03 -23.75469 150.81017 17133 ft 358 kts 340°
2026-04-25 10:03 -23.73138 150.80142 16579 ft 356 kts 340°
2026-04-25 10:03 -23.70785 150.79244 16104 ft 351 kts 340°
2026-04-25 10:03 -23.68517 150.78365 15660 ft 345 kts 340°
2026-04-25 10:04 -23.66254 150.77483 15218 ft 340 kts 340°
2026-04-25 10:04 -23.63979 150.76594 14774 ft 353 kts 340°
2026-04-25 10:04 -23.61702 150.75705 14325 ft 346 kts 341°
2026-04-25 10:04 -23.59440 150.74821 13882 ft 338 kts 341°
2026-04-25 10:05 -23.57240 150.73962 13448 ft 331 kts 341°
2026-04-25 10:05 -23.55104 150.73129 13038 ft 325 kts 341°
2026-04-25 10:05 -23.52985 150.72302 12623 ft 324 kts 341°
2026-04-25 10:05 -23.50857 150.71475 12200 ft 323 kts 342°
2026-04-25 10:06 -23.48741 150.70651 11782 ft 322 kts 342°
2026-04-25 10:06 -23.46622 150.69826 11360 ft 322 kts 342°
2026-04-25 10:06 -23.44514 150.69006 10942 ft 321 kts 342°
2026-04-25 10:06 -23.42394 150.68182 10521 ft 319 kts 342°
2026-04-25 10:07 -23.40309 150.67372 10090 ft 319 kts 342°
2026-04-25 10:07 -23.38216 150.66559 9821 ft 312 kts 342°
2026-04-25 10:07 -23.36202 150.65775 9459 ft 305 kts 342°
2026-04-25 10:07 -23.34217 150.65004 9041 ft 300 kts 342°
2026-04-25 10:08 -23.32268 150.64247 8680 ft 294 kts 343°
2026-04-25 10:08 -23.30366 150.63507 8329 ft 288 kts 342°
2026-04-25 10:08 -23.28478 150.62772 7969 ft 288 kts 343°
2026-04-25 10:08 -23.26579 150.62036 7613 ft 287 kts 343°
2026-04-25 10:09 -23.24688 150.61307 7251 ft 287 kts 343°
2026-04-25 10:09 -23.22799 150.60576 6898 ft 286 kts 343°
2026-04-25 10:09 -23.20945 150.59859 6554 ft 285 kts 343°
2026-04-25 10:09 -23.19084 150.59010 6195 ft 287 kts 334°
2026-04-25 10:10 -23.17526 150.57665 5844 ft 288 kts 307°
2026-04-25 10:10 -23.16700 150.55725 5502 ft 285 kts 283°
2026-04-25 10:10 -23.16311 150.53615 5122 ft 282 kts 277°
2026-04-25 10:10 -23.15988 150.51524 4772 ft 277 kts 277°
2026-04-25 10:11 -23.15624 150.49487 4435 ft 272 kts 278°
2026-04-25 10:11 -23.15392 150.47490 4157 ft 260 kts 267°
2026-04-25 10:11 -23.15690 150.45656 4068 ft 237 kts 237°
2026-04-25 10:11 -23.16662 150.44292 4020 ft 221 kts 219°
2026-04-25 10:12 -23.17729 150.43161 3946 ft 209 kts 217°
2026-04-25 10:12 -23.18743 150.42042 3822 ft 208 kts 219°
2026-04-25 10:12 -23.21012 150.40356 3380 ft 183 kts 178°
2026-04-25 10:13 -23.22231 150.40532 3105 ft 175 kts 155°
2026-04-25 10:13 -23.23348 150.41032 2839 ft 174 kts 152°
2026-04-25 10:13 -23.24456 150.41522 2599 ft 165 kts 153°
2026-04-25 10:13 -23.25495 150.41977 2414 ft 153 kts 152°
2026-04-25 10:14 -23.26474 150.42410 2207 ft 151 kts 152°
2026-04-25 10:14 -23.27445 150.42842 1998 ft 146 kts 152°
2026-04-25 10:14 -23.28385 150.43249 1845 ft 139 kts 153°
2026-04-25 10:14 -23.29256 150.43625 1675 ft 130 kts 151°
2026-04-25 10:15 -23.30059 150.43994 1494 ft 125 kts 152°
2026-04-25 10:15 -23.30886 150.44371 1318 ft 130 kts 152°
2026-04-25 10:15 -23.31712 150.44759 1133 ft 130 kts 153°
2026-04-25 10:15 -23.32567 150.45132 955 ft 134 kts 154°
2026-04-25 10:16 -23.33436 150.45497 809 ft 134 kts 155°
2026-04-25 10:16 -23.34308 150.45889 647 ft 136 kts 153°
2026-04-25 10:16 -23.35196 150.46297 466 ft 137 kts 156°
2026-04-25 10:16 -23.36082 150.46687 267 ft 138 kts 157°
2026-04-25 10:17 -23.36968 150.47078 79 ft 137 kts 156°
2026-04-25 10:17 -23.37776 150.47437 40 ft 96 kts 156°
2026-04-25 10:17 -23.38200 150.47627 38 ft 48 kts 158°
2026-04-25 10:17 -23.38502 150.47759 36 ft 38 kts 157°
2026-04-25 10:18 -23.38678 150.47836 34 ft 13 kts 158°
2026-04-25 10:18 -23.38716 150.47893 34 ft 9 kts 88°
2026-04-25 10:18 -23.38698 150.47948 36 ft 6 kts 67°
2026-04-25 10:18 -23.38649 150.48001 37 ft 14 kts 17°
2026-04-25 10:19 -23.38549 150.47971 37 ft 15 kts 337°
2026-04-25 10:19 -23.38452 150.47928 37 ft 14 kts 338°
2026-04-25 10:19 -23.38359 150.47888 37 ft 16 kts 338°
2026-04-25 10:19 -23.38228 150.47830 37 ft 21 kts 338°
2026-04-25 10:20 -23.38093 150.47769 37 ft 20 kts 338°
2026-04-25 10:20 -23.38009 150.47733 37 ft 7 kts 343°
2026-04-25 10:20 -23.37970 150.47749 37 ft 5 kts 30°
2026-04-25 10:20 -23.37936 150.47748 37 ft 4 kts 340°
2026-04-25 10:21 -23.37887 150.47726 38 ft 7 kts 338°
2026-04-25 10:21 -23.37842 150.47705 39 ft 5 kts 338°
2026-04-25 10:21 -23.37828 150.47708 39 ft 0 kts 62°
2026-04-25 10:21 -23.37831 150.47722 39 ft 3 kts 106°
2026-04-25 10:22 -23.37837 150.47748 39 ft 3 kts 105°
2026-04-25 10:22 -23.37840 150.47761 38 ft 0 kts 105°